| time (UTC) | temp F | wind direction | speed knots | gust knots | rain 1hr in | rain 24hr in | rain mn in | humidity % | barometer mb |
| 20260508044327 | 73 | 0 | 0.0 | 0.0 | 0.00 | 0.00 | 0.00 | 16 | 1009.2 |
| 20260508043325 | 74 | 0 | 0.0 | 0.0 | 0.00 | 0.00 | 0.00 | 16 | 1009.2 |
| 20260508042251 | 74 | 359 | 0.0 | 0.0 | 0.00 | 0.00 | 0.00 | 16 | 1009.1 |
| 20260508041303 | 75 | 358 | 0.0 | 0.9 | 0.00 | 0.00 | 0.00 | 16 | 1009.1 |
| 20260508040310 | 75 | 323 | 0.0 | 0.0 | 0.00 | 0.00 | 0.00 | 15 | 1009.1 |
| 20260508034128 | 75 | 26 | 0.0 | 0.0 | 0.00 | 0.00 | 0.00 | 15 | 1008.8 |
| 20260508033146 | 75 | 26 | 0.0 | 0.0 | 0.00 | 0.00 | 0.00 | 15 | 1008.6 |
| 20260508032154 | 76 | 333 | 0.0 | 0.0 | 0.00 | 0.00 | 0.00 | 15 | 1008.4 |
| 20260508031148 | 77 | 333 | 0.0 | 0.0 | 0.00 | 0.00 | 0.00 | 14 | 1008.3 |
| 20260508030156 | 79 | 333 | 0.0 | 0.0 | 0.00 | 0.00 | 0.00 | 14 | 1008.1 |
| 20260508025128 | 80 | 333 | 0.0 | 0.0 | 0.00 | 0.00 | 0.00 | 13 | 1007.9 |
| 20260508024141 | 81 | 317 | 0.0 | 0.0 | 0.00 | 0.00 | 0.00 | 13 | 1007.8 |
| 20260508023129 | 83 | 184 | 0.0 | 0.0 | 0.00 | 0.00 | 0.00 | 12 | 1007.6 |
| 20260508022133 | 83 | 183 | 0.9 | 5.2 | 0.00 | 0.00 | 0.00 | 12 | 1007.6 |
| 20260508021124 | 84 | 238 | 1.7 | 5.2 | 0.00 | 0.00 | 0.00 | 12 | 1007.5 |
| 20260508020133 | 85 | 237 | 0.9 | 8.7 | 0.00 | 0.00 | 0.00 | 12 | 1007.3 |
| 20260508015103 | 85 | 246 | 2.6 | 8.7 | 0.00 | 0.00 | 0.00 | 11 | 1007.1 |
| 20260508014106 | 85 | 240 | 1.7 | 8.7 | 0.00 | 0.00 | 0.00 | 11 | 1007.0 |
| 20260508011904 | 87 | 198 | 4.3 | 9.6 | 0.00 | 0.00 | 0.00 | 11 | 1007.0 |
| 20260508010924 | 88 | 221 | 4.3 | 9.6 | 0.00 | 0.00 | 0.00 | 10 | 1006.9 |
| 20260508005857 | 89 | 214 | 5.2 | 13.0 | 0.00 | 0.00 | 0.00 | 10 | 1006.9 |
| 20260508004918 | 89 | 191 | 5.2 | 13.0 | 0.00 | 0.00 | 0.00 | 10 | 1006.8 |
| 20260508003909 | 89 | 222 | 4.3 | 9.6 | 0.00 | 0.00 | 0.00 | 10 | 1006.8 |
| 20260508002907 | 90 | 225 | 4.3 | 9.6 | 0.00 | 0.00 | 0.00 | 9 | 1006.8 |
| 20260508001926 | 90 | 226 | 4.3 | 9.6 | 0.00 | 0.00 | 0.00 | 9 | 1006.7 |
| 20260508000914 | 90 | 235 | 4.3 | 9.6 | 0.00 | 0.00 | 0.00 | 10 | 1006.8 |
| 20260507235912 | 90 | 229 | 3.5 | 9.6 | 0.00 | 0.00 | 0.00 | 9 | 1006.9 |
| 20260507234930 | 90 | 193 | 3.5 | 11.3 | 0.00 | 0.00 | 0.00 | 9 | 1006.9 |
| 20260507233914 | 90 | 227 | 3.5 | 11.3 | 0.00 | 0.00 | 0.00 | 9 | 1007.0 |
| 20260507231710 | 91 | 287 | 5.2 | 11.3 | 0.00 | 0.00 | 0.00 | 9 | 1007.0 |
| 20260507230701 | 91 | 203 | 4.3 | 13.9 | 0.00 | 0.00 | 0.00 | 9 | 1006.9 |
| 20260507225627 | 91 | 274 | 6.1 | 13.9 | 0.00 | 0.00 | 0.00 | 9 | 1007.0 |
| 20260507224643 | 91 | 205 | 0.9 | 6.1 | 0.00 | 0.00 | 0.00 | 8 | 1007.0 |
| 20260507223656 | 92 | 280 | 2.6 | 8.7 | 0.00 | 0.00 | 0.00 | 7 | 1007.0 |
| 20260507222709 | 92 | 179 | 2.6 | 8.7 | 0.00 | 0.00 | 0.00 | 8 | 1007.2 |
| 20260507221723 | 91 | 205 | 3.5 | 8.7 | 0.00 | 0.00 | 0.00 | 8 | 1007.3 |
| 20260507220708 | 91 | 243 | 4.3 | 13.0 | 0.00 | 0.00 | 0.00 | 8 | 1007.4 |
| 20260507214531 | 91 | 231 | 6.1 | 13.0 | 0.00 | 0.00 | 0.00 | 8 | 1007.7 |
| 20260507212401 | 92 | 137 | 1.7 | 6.1 | 0.00 | 0.00 | 0.00 | 7 | 1008.1 |
| 20260507211414 | 91 | 134 | 0.9 | 4.3 | 0.00 | 0.00 | 0.00 | 7 | 1008.3 |
| 20260507210406 | 90 | 232 | 0.9 | 6.1 | 0.00 | 0.00 | 0.00 | 7 | 1008.6 |
| 20260507205401 | 89 | 163 | 2.6 | 7.0 | 0.00 | 0.00 | 0.00 | 6 | 1008.8 |
| 20260507204352 | 89 | 156 | 2.6 | 8.7 | 0.00 | 0.00 | 0.00 | 6 | 1008.9 |
| 20260507203415 | 90 | 345 | 1.7 | 8.7 | 0.00 | 0.00 | 0.00 | 7 | 1009.1 |
| 20260507200156 | 89 | 263 | 2.6 | 7.8 | 0.00 | 0.00 | 0.00 | 6 | 1009.5 |
| 20260507194017 | 89 | 128 | 1.7 | 9.6 | 0.00 | 0.00 | 0.00 | 7 | 1009.9 |
| 20260507193007 | 88 | 8 | 2.6 | 10.4 | 0.00 | 0.00 | 0.00 | 7 | 1010.2 |
| 20260507191946 | 89 | 27 | 2.6 | 10.4 | 0.00 | 0.00 | 0.00 | 7 | 1010.4 |
| 20260507190914 | 88 | 12 | 1.7 | 11.3 | 0.00 | 0.00 | 0.00 | 8 | 1010.4 |
| 20260507185932 | 88 | 320 | 2.6 | 11.3 | 0.00 | 0.00 | 0.00 | 8 | 1010.8 |
| 20260507184945 | 87 | 207 | 2.6 | 11.3 | 0.00 | 0.00 | 0.00 | 8 | 1010.8 |
| 20260507183954 | 87 | 2 | 5.2 | 11.3 | 0.00 | 0.00 | 0.00 | 8 | 1010.9 |
| 20260507182953 | 87 | 328 | 4.3 | 12.2 | 0.00 | 0.00 | 0.00 | 9 | 1011.1 |
| 20260507180926 | 86 | 39 | 5.2 | 13.9 | 0.00 | 0.00 | 0.00 | 10 | 1011.5 |
| 20260507175906 | 86 | 352 | 4.3 | 10.4 | 0.00 | 0.00 | 0.00 | 10 | 1011.6 |
| 20260507174926 | 86 | 250 | 1.7 | 10.4 | 0.00 | 0.00 | 0.00 | 11 | 1011.5 |
| 20260507173900 | 85 | 36 | 2.6 | 9.6 | 0.00 | 0.00 | 0.00 | 11 | 1011.7 |
| 20260507172900 | 85 | 347 | 3.5 | 13.0 | 0.00 | 0.00 | 0.00 | 11 | 1011.9 |
| 20260507170808 | 85 | 35 | 2.6 | 11.3 | 0.00 | 0.00 | 0.00 | 11 | 1011.9 |
| 20260507165742 | 85 | 30 | 5.2 | 11.3 | 0.00 | 0.00 | 0.00 | 11 | 1011.9 |
| 20260507163616 | 83 | 337 | 3.5 | 13.9 | 0.00 | 0.00 | 0.00 | 11 | 1011.9 |
| 20260507162544 | 83 | 23 | 2.6 | 13.9 | 0.00 | 0.00 | 0.00 | 11 | 1011.9 |
| 20260507160441 | 82 | 339 | 6.1 | 13.0 | 0.00 | 0.00 | 0.00 | 11 | 1012.3 |
| 20260507155446 | 82 | 15 | 3.5 | 13.0 | 0.00 | 0.00 | 0.00 | 11 | 1012.2 |
| 20260507154420 | 81 | 287 | 4.3 | 13.0 | 0.00 | 0.00 | 0.00 | 11 | 1012.2 |
| 20260507153405 | 80 | 55 | 7.0 | 15.6 | 0.00 | 0.00 | 0.00 | 12 | 1012.3 |
| 20260507152424 | 79 | 4 | 9.6 | 21.7 | 0.00 | 0.00 | 0.00 | 11 | 1012.4 |
| 20260507151410 | 78 | 24 | 9.6 | 21.7 | 0.00 | 0.00 | 0.00 | 12 | 1012.4 |
| 20260507150345 | 78 | 44 | 10.4 | 20.0 | 0.00 | 0.00 | 0.00 | 12 | 1012.5 |
| 20260507145404 | 77 | 43 | 8.7 | 16.5 | 0.00 | 0.00 | 0.00 | 12 | 1012.4 |
| 20260507144345 | 77 | 44 | 7.0 | 15.6 | 0.00 | 0.00 | 0.00 | 12 | 1012.5 |
| 20260507142256 | 77 | 66 | 7.8 | 21.7 | 0.00 | 0.00 | 0.00 | 11 | 1012.5 |
| 20260507141246 | 76 | 5 | 10.4 | 21.7 | 0.00 | 0.00 | 0.00 | 11 | 1012.4 |
| 20260507140242 | 75 | 43 | 12.2 | 20.0 | 0.00 | 0.00 | 0.00 | 12 | 1012.3 |
| 20260507135242 | 75 | 34 | 10.4 | 22.6 | 0.00 | 0.00 | 0.00 | 12 | 1012.3 |
| 20260507133109 | 74 | 55 | 13.0 | 20.0 | 0.00 | 0.00 | 0.00 | 13 | 1012.1 |
| 20260507132134 | 74 | 47 | 11.3 | 20.0 | 0.00 | 0.00 | 0.00 | 13 | 1012.2 |
| 20260507131137 | 73 | 11 | 10.4 | 18.2 | 0.00 | 0.00 | 0.00 | 14 | 1012.2 |
| 20260507130123 | 71 | 10 | 4.3 | 13.0 | 0.00 | 0.00 | 0.00 | 17 | 1012.1 |
| 20260507125139 | 68 | 32 | 1.7 | 7.0 | 0.00 | 0.00 | 0.00 | 24 | 1012.1 |
| 20260507124105 | 69 | 25 | 2.6 | 6.1 | 0.00 | 0.00 | 0.00 | 25 | 1012.3 |
| 20260507123040 | 70 | 290 | 1.7 | 7.8 | 0.00 | 0.00 | 0.00 | 25 | 1012.3 |
| 20260507122030 | 68 | 20 | 3.5 | 9.6 | 0.00 | 0.00 | 0.00 | 27 | 1012.4 |
| 20260507121004 | 68 | 4 | 6.1 | 9.6 | 0.00 | 0.00 | 0.00 | 28 | 1012.5 |
| 20260507120019 | 68 | 24 | 5.2 | 7.8 | 0.00 | 0.00 | 0.00 | 28 | 1012.5 |
| 20260507113927 | 68 | 18 | 5.2 | 8.7 | 0.00 | 0.00 | 0.00 | 28 | 1012.8 |
| 20260507112926 | 67 | 15 | 5.2 | 7.8 | 0.00 | 0.00 | 0.00 | 29 | 1012.8 |
| 20260507111935 | 66 | 7 | 4.3 | 9.6 | 0.00 | 0.00 | 0.00 | 29 | 1012.9 |
| 20260507110947 | 66 | 340 | 6.1 | 9.6 | 0.00 | 0.00 | 0.00 | 29 | 1012.8 |
| 20260507105932 | 66 | 349 | 4.3 | 8.7 | 0.00 | 0.00 | 0.00 | 30 | 1013.0 |
| 20260507104922 | 66 | 11 | 3.5 | 7.0 | 0.00 | 0.00 | 0.00 | 30 | 1013.0 |
| 20260507103932 | 65 | 7 | 2.6 | 6.1 | 0.00 | 0.00 | 0.00 | 30 | 1013.2 |
| 20260507100559 | 64 | 14 | 5.2 | 10.4 | 0.00 | 0.00 | 0.00 | 31 | 1013.4 |
| 20260507094344 | 65 | 330 | 5.2 | 9.6 | 0.00 | 0.00 | 0.00 | 30 | 1013.4 |
| 20260507093325 | 65 | 323 | 5.2 | 8.7 | 0.00 | 0.00 | 0.00 | 30 | 1013.4 |
| 20260507092335 | 64 | 318 | 6.1 | 9.6 | 0.00 | 0.00 | 0.00 | 31 | 1013.5 |
| 20260507091349 | 64 | 20 | 4.3 | 9.6 | 0.00 | 0.00 | 0.00 | 31 | 1013.6 |
| 20260507085145 | 65 | 29 | 4.3 | 9.6 | 0.00 | 0.00 | 0.00 | 30 | 1013.8 |
| 20260507084135 | 65 | 3 | 4.3 | 9.6 | 0.00 | 0.00 | 0.00 | 30 | 1013.8 |
| 20260507083111 | 65 | 332 | 4.3 | 7.8 | 0.00 | 0.00 | 0.00 | 30 | 1013.8 |
| 20260507082115 | 66 | 335 | 5.2 | 7.8 | 0.00 | 0.00 | 0.00 | 29 | 1013.8 |
| 20260507081057 | 66 | 338 | 4.3 | 8.7 | 0.00 | 0.00 | 0.00 | 29 | 1013.8 |
| 20260507074946 | 65 | 333 | 3.5 | 7.8 | 0.00 | 0.00 | 0.00 | 30 | 1014.0 |
| 20260507073946 | 65 | 4 | 4.3 | 7.8 | 0.00 | 0.00 | 0.00 | 30 | 1014.0 |
| 20260507072930 | 67 | 347 | 2.6 | 7.0 | 0.00 | 0.00 | 0.00 | 29 | 1014.1 |
| 20260507071859 | 67 | 13 | 4.3 | 7.0 | 0.00 | 0.00 | 0.00 | 29 | 1014.2 |
| 20260507065809 | 66 | 323 | 3.5 | 6.1 | 0.00 | 0.00 | 0.00 | 30 | 1014.2 |
| 20260507064833 | 64 | 4 | 0.9 | 4.3 | 0.00 | 0.00 | 0.00 | 31 | 1014.2 |
| 20260507063801 | 65 | 347 | 0.9 | 4.3 | 0.00 | 0.00 | 0.00 | 31 | 1014.1 |
| 20260507062756 | 63 | 56 | 0.0 | 0.0 | 0.00 | 0.00 | 0.00 | 32 | 1014.1 |
| 20260507061738 | 63 | 58 | 0.0 | 0.0 | 0.00 | 0.00 | 0.00 | 32 | 1014.1 |
| 20260507060704 | 65 | 26 | 0.0 | 1.7 | 0.00 | 0.00 | 0.00 | 30 | 1014.1 |
| 20260507055647 | 64 | 56 | 0.0 | 0.0 | 0.00 | 0.00 | 0.00 | 31 | 1014.1 |
| 20260507054621 | 64 | 16 | 0.0 | 0.9 | 0.00 | 0.00 | 0.00 | 31 | 1014.0 |
| 20260507053601 | 65 | 16 | 0.0 | 0.0 | 0.00 | 0.00 | 0.00 | 31 | 1014.0 |
| 20260507052535 | 65 | 16 | 0.0 | 0.0 | 0.00 | 0.00 | 0.00 | 31 | 1014.0 |
| 20260507051504 | 65 | 16 | 0.0 | 0.0 | 0.00 | 0.00 | 0.00 | 31 | 1014.0 |
| 20260507050508 | 65 | 16 | 0.0 | 0.0 | 0.00 | 0.00 | 0.00 | 31 | 1014.0 |
| 20260507045448 | 65 | 16 | 0.0 | 0.0 | 0.00 | 0.00 | 0.00 | 30 | 1014.0 |